Location: Eastchurch
(51.4000°N, 0.8667°E)
Time: 23:36:16
(UTC+00:00)

ARIANE 5 R/B - Pass Details

Date: 19 January 2026
Orbit: 746 x 793 km, 98.8° (Epoch: 7 February)

Event Time Altitude Azimuth Distance (km) Brightness Sun altitude
Rises 17:16:48 0° 158° (SSE) 3,281 5.8 -8.2°
Reaches altitude 10° 17:19:07 10° 157° (SSE) 2,355 5.0 -8.5°
Maximum altitude 17:24:19 78° 71° (ENE) 813 2.5 -9.3°
Drops below altitude 10° 17:29:32 10° 347° (NNW) 2,356 5.0 -10.0°
Sets 17:31:51 0° 346° (NNW) 3,284 5.7 -10.4°
